Allentown, PA

3:21 AM EDT on August 21, 2017 (GMT -0400)
Lehigh Valley International

Weather History for KABE - April, 2014

Change the Weather History Date:

Thursday, April 10, 2014

  Actual Average Record
Temperature  
Mean Temperature 47 °F 48 °F  
Max Temperature 67 °F 59 °F 86 °F (2013)
Min Temperature 27 °F 37 °F 23 °F (1950)
Degree Days  
Heating Degree Days 18 17  
Month to date heating degree days 187 186  
Since 1 July heating degree days 5747 5298  
Cooling Degree Days 0 0  
Month to date cooling degree days 0 0  
Year to date cooling degree days 0 0  
Moisture  
Dew Point 29 °F    
Average Humidity 52    
Maximum Humidity 78    
Minimum Humidity 26    
Precipitation  
Precipitation 0.00 in 0.13 in 1.54 in (1993)
Month to date precipitation 0.92 1.22  
Year to date precipitation 12.35 10.34  
Snow  
Snow 0.00 in 0.00 in 2.00 in (1918)
Month to date snowfall 0.0 0.5  
Since 1 July snowfall 67.8 32.4  
Snow Depth 0.00 in    
Sea Level Pressure  
Sea Level Pressure 30.09 in    
Wind  
Wind Speed 8 mph (SSW)    
Max Wind Speed 22 mph    
Max Gust Speed 31 mph    
Visibility 10 miles    
Events      
T = Trace of Precipitation, MM = Missing Value Source: NWS Daily Summary

Daily Weather History Graph

Daily Weather History Graph

Search for Another Location

Airport or City:

Trip Planner

Search our weather history database for the weather conditions in past years. The results will help you decide how hot, cold, wet, or windy it might be!

Date:

Astronomy

Apr. 10, 2014 Rise Set
Actual Time 6:30 AM EDT 7:35 PM EDT
Civil Twilight 6:02 AM EDT 8:03 PM EDT
Nautical Twilight 5:29 AM EDT 8:37 PM EDT
Astronomical Twilight 4:54 AM EDT 9:12 PM EDT
Moon 3:16 PM EDT (4/10) 3:53 AM EDT (4/10)
Length of Visible Light 14h 01m
Length of Day
13h 04m
Waxing Gibbous, 79% of the Moon is Illuminated
Apr 10
Waxing Gibbous
Apr 15
Full
Apr 22
Last Quarter
Apr 29
New
May 6
First Quarter

Hourly Weather History & Observations

Time (EDT) Temp. Windchill Dew Point Humidity Pressure Visibility Wind Dir Wind Speed Gust Speed Precip Events Conditions
12:51 AM 44.1 °F 42.5 °F 24.1 °F 45% 30.06 in 10.0 mi NW 3.5 mph - N/A   Clear
1:51 AM 43.0 °F - 23.0 °F 45% 30.08 in 10.0 mi Calm Calm - N/A   Clear
2:51 AM 36.0 °F - 24.1 °F 62% 30.09 in 10.0 mi Calm Calm - N/A   Clear
3:51 AM 32.0 °F - 25.0 °F 75% 30.10 in 10.0 mi Calm Calm - N/A   Clear
4:51 AM 32.0 °F - 24.1 °F 73% 30.11 in 10.0 mi Calm Calm - N/A   Clear
5:51 AM 28.0 °F - 21.9 °F 78% 30.14 in 10.0 mi Calm Calm - N/A   Clear
6:51 AM 30.0 °F - 25.0 °F 82% 30.17 in 10.0 mi Calm Calm - N/A   Clear
7:51 AM 34.0 °F 31.0 °F 27.0 °F 75% 30.19 in 10.0 mi NNW 3.5 mph - N/A   Clear
8:51 AM 43.0 °F - 28.9 °F 58% 30.20 in 10.0 mi Calm Calm - N/A   Clear
9:51 AM 50.0 °F - 28.9 °F 44% 30.21 in 10.0 mi Variable 3.5 mph - N/A   Clear
10:51 AM 55.9 °F - 28.9 °F 36% 30.19 in 10.0 mi South 9.2 mph - N/A   Clear
11:51 AM 60.1 °F - 30.0 °F 32% 30.16 in 10.0 mi South 10.4 mph - N/A   Clear
12:51 PM 62.1 °F - 30.0 °F 30% 30.13 in 10.0 mi SSW 12.7 mph 20.7 mph N/A   Clear
1:51 PM 64.9 °F - 30.9 °F 28% 30.10 in 10.0 mi SW 11.5 mph 17.3 mph N/A   Clear
2:51 PM 64.9 °F - 30.9 °F 28% 30.08 in 10.0 mi SSW 16.1 mph 23.0 mph N/A   Clear
3:51 PM 66.0 °F - 30.9 °F 27% 30.05 in 10.0 mi SW 13.8 mph 31.1 mph N/A   Clear
4:51 PM 66.0 °F - 30.0 °F 26% 30.03 in 10.0 mi SSW 17.3 mph 25.3 mph N/A   Clear
5:51 PM 66.0 °F - 30.9 °F 27% 30.02 in 10.0 mi South 16.1 mph - N/A   Clear
6:51 PM 63.0 °F - 30.0 °F 29% 30.02 in 10.0 mi South 15.0 mph 24.2 mph N/A   Clear
7:51 PM 62.1 °F - 30.0 °F 30% 30.01 in 10.0 mi South 11.5 mph 18.4 mph N/A   Clear
8:51 PM 59.0 °F - 32.0 °F 36% 30.03 in 10.0 mi South 11.5 mph 16.1 mph N/A   Clear
9:51 PM 59.0 °F - 33.1 °F 38% 30.02 in 10.0 mi South 15.0 mph - N/A   Clear
10:51 PM 57.2 °F - 33.8 °F 41% 30.01 in 10.0 mi SSW 11.5 mph - N/A   Clear
11:51 PM 54.0 °F - 34.0 °F 47% 30.01 in 10.0 mi SSW 4.6 mph - N/A   Clear